| time (UTC) | temp F | wind direction | speed knots | gust knots | rain 1hr in | rain 24hr in | rain mn in | humidity % | barometer mb |
| 20260508065043 | 62 | 324 | 1.7 | 1.7 | 0.00 | 0.00 | 0.00 | 81 | 1016.4 |
| 20260508064541 | 62 | 324 | 0.0 | 0.0 | 0.00 | 0.00 | 0.00 | 81 | 1016.4 |
| 20260508064028 | 62 | 324 | 0.0 | 0.0 | 0.00 | 0.00 | 0.00 | 80 | 1016.5 |
| 20260508063528 | 62 | 324 | 0.0 | 0.0 | 0.00 | 0.00 | 0.00 | 77 | 1016.6 |
| 20260508063016 | 62 | 354 | 1.7 | 1.7 | 0.00 | 0.00 | 0.00 | 76 | 1016.6 |
| 20260508062504 | 62 | 42 | 1.7 | 1.7 | 0.00 | 0.00 | 0.00 | 76 | 1016.6 |
| 20260508062003 | 62 | 320 | 1.7 | 1.7 | 0.00 | 0.00 | 0.00 | 75 | 1016.7 |
| 20260508061451 | 61 | 306 | 0.0 | 0.0 | 0.00 | 0.00 | 0.00 | 75 | 1016.8 |
| 20260508060951 | 61 | 306 | 1.7 | 1.7 | 0.00 | 0.00 | 0.00 | 76 | 1016.7 |
| 20260508060439 | 61 | 186 | 1.7 | 1.7 | 0.00 | 0.00 | 0.00 | 76 | 1016.9 |
| 20260508055940 | 61 | 168 | 0.0 | 0.0 | 0.00 | 0.00 | 0.00 | 77 | 1016.8 |
| 20260508055427 | 62 | 222 | 4.3 | 4.3 | 0.00 | 0.00 | 0.00 | 75 | 1016.9 |
| 20260508054914 | 62 | 210 | 0.0 | 0.0 | 0.00 | 0.00 | 0.00 | 71 | 1016.8 |
| 20260508054414 | 62 | 276 | 0.0 | 0.0 | 0.00 | 0.00 | 0.00 | 71 | 1016.7 |
| 20260508053901 | 62 | 23 | 0.0 | 0.0 | 0.00 | 0.00 | 0.00 | 73 | 1016.7 |
| 20260508053401 | 62 | 23 | 1.7 | 1.7 | 0.00 | 0.00 | 0.00 | 71 | 1016.8 |
| 20260508052848 | 61 | 282 | 3.5 | 3.5 | 0.00 | 0.00 | 0.00 | 71 | 1017.0 |
| 20260508052348 | 61 | 330 | 1.7 | 1.7 | 0.00 | 0.00 | 0.00 | 75 | 1017.0 |
| 20260508051836 | 60 | 318 | 0.0 | 0.0 | 0.00 | 0.00 | 0.00 | 79 | 1017.3 |
| 20260508051324 | 60 | 318 | 0.0 | 0.0 | 0.00 | 0.00 | 0.00 | 80 | 1017.2 |
| 20260508050824 | 60 | 318 | 1.7 | 1.7 | 0.00 | 0.00 | 0.00 | 80 | 1017.0 |
| 20260508050312 | 60 | 318 | 0.0 | 0.0 | 0.00 | 0.00 | 0.00 | 79 | 1016.7 |
| 20260508045812 | 60 | 318 | 0.0 | 0.0 | 0.00 | 0.00 | 0.00 | 81 | 1016.3 |
| 20260508045259 | 60 | 318 | 0.0 | 0.0 | 0.00 | 0.00 | 0.00 | 81 | 1015.9 |
| 20260508044759 | 60 | 318 | 0.0 | 0.0 | 0.00 | 0.00 | 0.00 | 81 | 1015.8 |
| 20260508044246 | 60 | 318 | 1.7 | 1.7 | 0.00 | 0.00 | 0.00 | 83 | 1015.6 |
| 20260508043746 | 60 | 318 | 0.0 | 0.0 | 0.00 | 0.00 | 0.00 | 83 | 1015.5 |
| 20260508043234 | 59 | 318 | 0.0 | 0.0 | 0.00 | 0.00 | 0.00 | 83 | 1015.4 |
| 20260508042721 | 59 | 318 | 1.7 | 1.7 | 0.00 | 0.00 | 0.00 | 83 | 1015.3 |
| 20260508042221 | 59 | 318 | 1.7 | 1.7 | 0.00 | 0.00 | 0.00 | 83 | 1015.4 |
| 20260508041709 | 59 | 318 | 0.0 | 0.0 | 0.00 | 0.00 | 0.00 | 82 | 1015.3 |
| 20260508041209 | 59 | 318 | 0.0 | 0.0 | 0.00 | 0.00 | 0.00 | 81 | 1015.2 |
| 20260508040658 | 59 | 318 | 1.7 | 1.7 | 0.00 | 0.00 | 0.00 | 82 | 1015.2 |
| 20260508040157 | 59 | 318 | 0.0 | 0.0 | 0.00 | 0.00 | 0.00 | 80 | 1015.2 |
| 20260508035645 | 59 | 318 | 0.0 | 0.0 | 0.00 | 0.00 | 0.00 | 79 | 1015.1 |
| 20260508035132 | 58 | 318 | 1.7 | 1.7 | 0.00 | 0.00 | 0.00 | 78 | 1015.1 |
| 20260508034631 | 58 | 318 | 1.7 | 1.7 | 0.00 | 0.00 | 0.00 | 79 | 1015.0 |
| 20260508034119 | 58 | 312 | 1.7 | 1.7 | 0.00 | 0.00 | 0.00 | 79 | 1014.9 |
| 20260508033618 | 59 | 312 | 1.7 | 1.7 | 0.00 | 0.00 | 0.00 | 78 | 1015.0 |
| 20260508033106 | 59 | 312 | 0.0 | 0.0 | 0.00 | 0.00 | 0.00 | 78 | 1014.9 |
| 20260508032606 | 59 | 336 | 1.7 | 1.7 | 0.00 | 0.00 | 0.00 | 78 | 1014.8 |
| 20260508032054 | 59 | 318 | 0.0 | 0.0 | 0.00 | 0.00 | 0.00 | 78 | 1014.8 |
| 20260508031554 | 59 | 318 | 1.7 | 1.7 | 0.00 | 0.00 | 0.00 | 77 | 1014.9 |
| 20260508031041 | 60 | 0 | 1.7 | 1.7 | 0.00 | 0.00 | 0.00 | 78 | 1014.9 |
| 20260508030529 | 59 | 66 | 1.7 | 1.7 | 0.00 | 0.00 | 0.00 | 77 | 1014.8 |
| 20260508030030 | 59 | 312 | 1.7 | 1.7 | 0.00 | 0.00 | 0.00 | 78 | 1014.8 |
| 20260508025517 | 59 | 300 | 1.7 | 1.7 | 0.00 | 0.00 | 0.00 | 77 | 1014.7 |
| 20260508025016 | 59 | 300 | 1.7 | 1.7 | 0.00 | 0.00 | 0.00 | 78 | 1014.7 |
| 20260508024543 | 59 | 300 | 1.7 | 1.7 | 0.00 | 0.00 | 0.00 | 79 | 1014.7 |
| 20260508024044 | 59 | 300 | 1.7 | 1.7 | 0.00 | 0.00 | 0.00 | 78 | 1014.8 |
| 20260508023531 | 59 | 300 | 2.6 | 2.6 | 0.00 | 0.00 | 0.00 | 79 | 1014.8 |
| 20260508023018 | 59 | 300 | 1.7 | 1.7 | 0.00 | 0.00 | 0.00 | 79 | 1014.8 |
| 20260508022518 | 59 | 300 | 0.0 | 0.0 | 0.00 | 0.00 | 0.00 | 80 | 1014.9 |
| 20260508022006 | 59 | 300 | 1.7 | 1.7 | 0.00 | 0.00 | 0.00 | 77 | 1015.1 |
| 20260508021506 | 59 | 300 | 1.7 | 1.7 | 0.00 | 0.00 | 0.00 | 78 | 1015.1 |
| 20260508020954 | 59 | 300 | 0.0 | 0.0 | 0.00 | 0.00 | 0.00 | 79 | 1015.1 |
| 20260508020453 | 59 | 300 | 0.0 | 0.0 | 0.00 | 0.00 | 0.00 | 78 | 1015.1 |
| 20260508015940 | 59 | 300 | 1.7 | 1.7 | 0.00 | 0.00 | 0.00 | 79 | 1015.1 |
| 20260508015441 | 60 | 300 | 1.7 | 1.7 | 0.00 | 0.00 | 0.00 | 78 | 1015.1 |
| 20260508014929 | 60 | 300 | 1.7 | 1.7 | 0.00 | 0.00 | 0.00 | 78 | 1015.1 |
| 20260508014416 | 60 | 300 | 0.0 | 0.0 | 0.00 | 0.00 | 0.00 | 77 | 1015.0 |
| 20260508013915 | 60 | 324 | 1.7 | 1.7 | 0.00 | 0.00 | 0.00 | 77 | 1015.1 |
| 20260508013323 | 60 | 24 | 1.7 | 1.7 | 0.00 | 0.00 | 0.00 | 77 | 1014.8 |
| 20260508012824 | 59 | 330 | 1.7 | 1.7 | 0.00 | 0.00 | 0.00 | 77 | 1014.9 |
| 20260508012311 | 59 | 306 | 1.7 | 1.7 | 0.00 | 0.00 | 0.00 | 81 | 1015.0 |
| 20260508011812 | 59 | 306 | 1.7 | 1.7 | 0.00 | 0.00 | 0.00 | 81 | 1015.1 |
| 20260508011300 | 59 | 306 | 0.0 | 0.0 | 0.00 | 0.00 | 0.00 | 81 | 1015.2 |
| 20260508010747 | 59 | 306 | 1.7 | 1.7 | 0.00 | 0.00 | 0.00 | 79 | 1015.2 |
| 20260508010247 | 59 | 306 | 1.7 | 1.7 | 0.00 | 0.00 | 0.00 | 79 | 1015.1 |
| 20260508005734 | 58 | 306 | 0.0 | 0.0 | 0.00 | 0.00 | 0.00 | 80 | 1015.1 |
| 20260508005234 | 58 | 306 | 1.7 | 1.7 | 0.00 | 0.00 | 0.00 | 81 | 1015.1 |
| 20260508004721 | 58 | 306 | 1.7 | 1.7 | 0.00 | 0.00 | 0.00 | 81 | 1015.1 |
| 20260508004222 | 58 | 306 | 0.0 | 0.0 | 0.00 | 0.00 | 0.00 | 82 | 1015.2 |
| 20260508003708 | 58 | 306 | 1.7 | 1.7 | 0.00 | 0.00 | 0.00 | 82 | 1015.2 |
| 20260508003210 | 58 | 306 | 1.7 | 1.7 | 0.00 | 0.00 | 0.00 | 82 | 1015.4 |
| 20260508002657 | 58 | 306 | 1.7 | 1.7 | 0.00 | 0.00 | 0.00 | 81 | 1015.5 |
| 20260508002157 | 58 | 306 | 1.7 | 1.7 | 0.00 | 0.00 | 0.00 | 81 | 1015.5 |
| 20260508001656 | 58 | 306 | 1.7 | 1.7 | 0.00 | 0.00 | 0.00 | 81 | 1015.5 |
| 20260508001156 | 58 | 306 | 1.7 | 1.7 | 0.00 | 0.00 | 0.00 | 81 | 1015.6 |
| 20260508000657 | 58 | 306 | 1.7 | 1.7 | 0.00 | 0.00 | 0.00 | 83 | 1015.7 |
| 20260508000144 | 58 | 306 | 1.7 | 1.7 | 0.00 | 0.00 | 0.00 | 81 | 1015.8 |
| 20260507235644 | 58 | 306 | 1.7 | 1.7 | 0.00 | 0.00 | 0.00 | 81 | 1015.8 |
| 20260507235211 | 58 | 306 | 2.6 | 2.6 | 0.00 | 0.00 | 0.00 | 82 | 1015.8 |
| 20260507234711 | 58 | 306 | 1.7 | 1.7 | 0.00 | 0.00 | 0.00 | 81 | 1015.9 |
| 20260507234159 | 59 | 324 | 0.0 | 0.0 | 0.00 | 0.00 | 0.00 | 81 | 1015.9 |
| 20260507233658 | 58 | 330 | 1.7 | 1.7 | 0.00 | 0.00 | 0.00 | 80 | 1015.8 |
| 20260507233145 | 58 | 312 | 1.7 | 1.7 | 0.00 | 0.00 | 0.00 | 83 | 1015.9 |
| 20260507232633 | 58 | 312 | 1.7 | 1.7 | 0.00 | 0.00 | 0.00 | 82 | 1016.1 |
| 20260507232134 | 58 | 312 | 1.7 | 1.7 | 0.00 | 0.00 | 0.00 | 82 | 1016.2 |
| 20260507231621 | 58 | 312 | 1.7 | 1.7 | 0.00 | 0.00 | 0.00 | 82 | 1016.3 |
| 20260507231120 | 58 | 312 | 1.7 | 1.7 | 0.00 | 0.00 | 0.00 | 83 | 1016.2 |
| 20260507230529 | 58 | 312 | 1.7 | 1.7 | 0.00 | 0.00 | 0.00 | 82 | 1016.2 |
| 20260507230029 | 58 | 312 | 1.7 | 1.7 | 0.00 | 0.00 | 0.00 | 82 | 1016.2 |
| 20260507225516 | 59 | 312 | 1.7 | 1.7 | 0.00 | 0.00 | 0.00 | 81 | 1016.3 |
| 20260507225019 | 58 | 318 | 1.7 | 1.7 | 0.00 | 0.00 | 0.00 | 82 | 1016.3 |
| 20260507224505 | 59 | 314 | 1.7 | 1.7 | 0.00 | 0.00 | 0.00 | 81 | 1016.4 |
| 20260507223952 | 58 | 318 | 1.7 | 1.7 | 0.00 | 0.00 | 0.00 | 81 | 1016.5 |
| 20260507223452 | 59 | 306 | 2.6 | 2.6 | 0.00 | 0.00 | 0.00 | 82 | 1016.5 |
| 20260507222939 | 59 | 306 | 1.7 | 1.7 | 0.00 | 0.00 | 0.00 | 80 | 1016.4 |
| 20260507222439 | 59 | 319 | 1.7 | 1.7 | 0.00 | 0.00 | 0.00 | 81 | 1016.4 |
| 20260507221926 | 58 | 312 | 2.6 | 2.6 | 0.00 | 0.00 | 0.00 | 81 | 1016.5 |
| 20260507221427 | 59 | 312 | 1.7 | 1.7 | 0.00 | 0.00 | 0.00 | 80 | 1016.4 |
| 20260507220914 | 59 | 318 | 1.7 | 1.7 | 0.00 | 0.00 | 0.00 | 80 | 1016.4 |
| 20260507220418 | 60 | 318 | 1.7 | 1.7 | 0.00 | 0.00 | 0.00 | 79 | 1016.5 |
| 20260507215903 | 60 | 318 | 0.0 | 0.0 | 0.00 | 0.00 | 0.00 | 79 | 1016.4 |
| 20260507215352 | 60 | 318 | 1.7 | 1.7 | 0.00 | 0.00 | 0.00 | 79 | 1016.4 |
| 20260507214849 | 60 | 318 | 1.7 | 1.7 | 0.00 | 0.00 | 0.00 | 78 | 1016.4 |
| 20260507214337 | 60 | 342 | 1.7 | 1.7 | 0.00 | 0.00 | 0.00 | 78 | 1016.5 |
| 20260507213837 | 61 | 11 | 1.7 | 1.7 | 0.00 | 0.00 | 0.00 | 76 | 1016.7 |
| 20260507213325 | 61 | 26 | 1.7 | 1.7 | 0.00 | 0.00 | 0.00 | 75 | 1016.7 |
| 20260507212826 | 62 | 60 | 0.0 | 0.0 | 0.00 | 0.00 | 0.00 | 74 | 1016.7 |
| 20260507212313 | 61 | 14 | 0.0 | 0.0 | 0.00 | 0.00 | 0.00 | 75 | 1016.7 |
| 20260507211800 | 62 | 318 | 1.7 | 1.7 | 0.00 | 0.00 | 0.00 | 75 | 1016.7 |
| 20260507211301 | 62 | 330 | 1.7 | 1.7 | 0.00 | 0.00 | 0.00 | 75 | 1016.7 |
| 20260507210749 | 62 | 352 | 1.7 | 1.7 | 0.00 | 0.00 | 0.00 | 74 | 1016.8 |
| 20260507210254 | 62 | 348 | 1.7 | 1.7 | 0.00 | 0.00 | 0.00 | 74 | 1016.8 |
| 20260507205739 | 62 | 330 | 1.7 | 1.7 | 0.00 | 0.00 | 0.00 | 74 | 1016.9 |
| 20260507205236 | 61 | 319 | 1.7 | 1.7 | 0.00 | 0.00 | 0.00 | 74 | 1016.8 |
| 20260507204725 | 61 | 318 | 0.0 | 0.0 | 0.00 | 0.00 | 0.00 | 75 | 1016.8 |
| 20260507204212 | 61 | 300 | 1.7 | 1.7 | 0.00 | 0.00 | 0.00 | 75 | 1016.9 |
| 20260507203712 | 61 | 312 | 1.7 | 1.7 | 0.00 | 0.00 | 0.00 | 75 | 1016.8 |
| 20260507203201 | 62 | 330 | 1.7 | 1.7 | 0.00 | 0.00 | 0.00 | 74 | 1016.8 |
| 20260507202703 | 62 | 330 | 0.0 | 0.0 | 0.00 | 0.00 | 0.00 | 75 | 1016.9 |
| 20260507202147 | 62 | 330 | 1.7 | 1.7 | 0.00 | 0.00 | 0.00 | 73 | 1016.9 |
| 20260507201652 | 62 | 335 | 1.7 | 1.7 | 0.00 | 0.00 | 0.00 | 73 | 1016.8 |
| 20260507201136 | 62 | 318 | 1.7 | 1.7 | 0.00 | 0.00 | 0.00 | 74 | 1016.8 |
| 20260507200624 | 62 | 324 | 1.7 | 1.7 | 0.00 | 0.00 | 0.00 | 73 | 1016.8 |
| 20260507200128 | 62 | 336 | 1.7 | 1.7 | 0.00 | 0.00 | 0.00 | 73 | 1016.9 |
| 20260507195609 | 62 | 348 | 1.7 | 1.7 | 0.00 | 0.00 | 0.00 | 72 | 1016.9 |
| 20260507195107 | 62 | 324 | 1.7 | 1.7 | 0.00 | 0.00 | 0.00 | 73 | 1016.9 |
| 20260507194557 | 62 | 330 | 1.7 | 1.7 | 0.00 | 0.00 | 0.00 | 72 | 1016.8 |
| 20260507194107 | 62 | 346 | 3.5 | 4.3 | 0.00 | 0.00 | 0.00 | 73 | 1016.9 |
| 20260507193601 | 62 | 318 | 3.5 | 3.5 | 0.00 | 0.00 | 0.00 | 73 | 1016.9 |
| 20260507193101 | 62 | 318 | 1.7 | 1.7 | 0.00 | 0.00 | 0.00 | 73 | 1016.9 |
| 20260507192541 | 62 | 318 | 1.7 | 1.7 | 0.00 | 0.00 | 0.00 | 73 | 1016.8 |
| 20260507192020 | 62 | 318 | 1.7 | 1.7 | 0.00 | 0.00 | 0.00 | 73 | 1016.8 |
| 20260507191526 | 62 | 318 | 1.7 | 1.7 | 0.00 | 0.00 | 0.00 | 73 | 1016.8 |
| 20260507191007 | 62 | 318 | 2.6 | 2.6 | 0.00 | 0.00 | 0.00 | 73 | 1016.7 |
| 20260507190515 | 62 | 318 | 1.7 | 1.7 | 0.00 | 0.00 | 0.00 | 72 | 1016.7 |
| 20260507185958 | 62 | 318 | 1.7 | 1.7 | 0.00 | 0.00 | 0.00 | 73 | 1016.7 |
| 20260507185453 | 63 | 325 | 3.5 | 3.5 | 0.00 | 0.00 | 0.00 | 72 | 1016.6 |
| 20260507184945 | 63 | 318 | 1.7 | 1.7 | 0.00 | 0.00 | 0.00 | 72 | 1016.6 |
| 20260507184432 | 63 | 318 | 0.0 | 0.0 | 0.00 | 0.00 | 0.00 | 72 | 1016.5 |
| 20260507183932 | 63 | 330 | 0.0 | 0.0 | 0.00 | 0.00 | 0.00 | 72 | 1016.4 |
| 20260507183418 | 63 | 346 | 0.0 | 0.0 | 0.00 | 0.00 | 0.00 | 72 | 1016.3 |
| 20260507182922 | 63 | 336 | 1.7 | 1.7 | 0.00 | 0.00 | 0.00 | 72 | 1016.4 |
| 20260507182411 | 63 | 312 | 1.7 | 1.7 | 0.00 | 0.00 | 0.00 | 73 | 1016.4 |
| 20260507181902 | 63 | 342 | 1.7 | 1.7 | 0.00 | 0.00 | 0.00 | 72 | 1016.4 |
| 20260507181351 | 63 | 12 | 1.7 | 1.7 | 0.00 | 0.00 | 0.00 | 72 | 1016.4 |
| 20260507180841 | 63 | 19 | 1.7 | 1.7 | 0.00 | 0.00 | 0.00 | 72 | 1016.4 |
| 20260507180341 | 64 | 27 | 1.7 | 1.7 | 0.00 | 0.00 | 0.00 | 71 | 1016.3 |
| 20260507175826 | 64 | 33 | 1.7 | 1.7 | 0.00 | 0.00 | 0.00 | 69 | 1016.2 |
| 20260507175330 | 64 | 36 | 1.7 | 1.7 | 0.00 | 0.00 | 0.00 | 69 | 1016.1 |
| 20260507174814 | 64 | 25 | 1.7 | 1.7 | 0.00 | 0.00 | 0.00 | 68 | 1016.2 |
| 20260507174412 | 64 | 36 | 1.7 | 1.7 | 0.00 | 0.00 | 0.00 | 67 | 1016.3 |